S59ZO-6 Weather Reports


Display with metric or nautical units.
time (UTC)temp
F
wind
direction
speed
MPH
gust
MPH
rain 1hr
in
rain 24hr
in
rain mn
in
humidity
%
barometer
mb
20181121115004 41 163 0.0 2.0 0.00 4.65 0.02 77 1005.0
20181121114004 41 152 0.0 1.0 0.00 4.65 0.02 77 1005.1
20181121113003 42 0 0.0 0.0 0.00 4.65 0.02 78 1005.0
20181121112004 42 177 0.0 2.0 0.00 4.65 0.02 79 1005.0
20181121111003 41 144 1.0 1.0 0.00 4.65 0.02 80 1004.9
20181121110003 41 189 0.0 2.0 0.00 4.65 0.02 80 1004.9
20181121105003 40 0 0.0 0.0 0.00 4.65 0.02 80 1004.9
20181121104004 40 1 0.0 1.0 0.00 4.65 0.02 80 1005.1
20181121103004 39 3 0.0 2.0 0.00 4.65 0.02 80 1004.9
20181121102004 39 4 1.0 2.0 0.00 4.65 0.02 80 1005.3
20181121101004 40 4 1.0 2.0 0.00 4.65 0.02 80 1005.2
20181121094004 39 11 1.0 2.0 0.00 4.65 0.02 81 1005.4
20181121093003 38 14 0.0 2.0 0.00 2.17 0.02 81 1005.3
20181121091004 38 45 0.0 1.0 0.01 0.00 0.02 81 1005.3
20181121090004 38 84 0.0 2.0 0.01 0.00 0.02 82 1005.2
20181121085004 38 56 0.0 1.0 0.01 0.00 0.02 82 1005.1
20181121083003 38 124 0.0 1.0 0.01 4.65 0.02 83 1005.0
20181121082003 37 90 0.0 1.0 0.00 6.41 0.01 83 1005.0
20181121081004 37 0 0.0 0.0 0.00 6.41 0.01 83 1005.0
20181121075004 37 0 0.0 0.0 0.00 6.41 0.01 83 1004.9
20181121074003 37 0 0.0 0.0 0.00 6.41 0.01 84 1004.9
20181121073004 37 0 0.0 0.0 0.00 6.41 0.01 84 1005.0
20181121072004 37 0 0.0 0.0 0.00 6.41 0.01 84 1004.7
20181121071003 36 0 0.0 0.0 0.00 6.41 0.01 84 1004.5
20181121070004 36 135 0.0 1.0 0.00 6.41 0.01 84 1004.5
20181121055003 36 152 0.0 2.0 6.37 6.41 0.01 84 1003.9
20181121053004 36 182 0.0 1.0 0.00 6.41 0.01 84 1003.8
20181121051004 36 1 0.0 1.0 0.00 6.41 0.01 84 1003.7
20181121050004 35 1 0.0 2.0 0.00 6.41 0.01 83 1003.7
20181121045004 35 21 0.0 3.0 0.00 6.37 0.01 83 1003.5
20181121044004 35 181 1.0 2.0 0.00 4.80 0.01 83 1003.5
20181121043004 36 181 2.0 3.0 0.00 4.41 0.01 83 1003.4
20181121042004 36 181 1.0 2.0 0.00 3.81 0.01 84 1003.3
20181121041004 36 181 0.0 2.0 0.00 4.21 0.01 84 1003.3
20181121040004 35 1 0.0 2.0 0.00 1.73 0.01 83 1003.3
20181121035004 35 1 1.0 2.0 0.00 3.85 0.01 83 1003.3
20181121033003 36 53 1.0 2.0 0.00 0.00 0.01 84 1003.1
20181121032004 35 45 0.0 1.0 0.00 1.37 0.01 83 1003.3
20181121031004 35 28 0.0 1.0 0.00 1.53 0.01 83 1003.2
20181121030004 36 42 0.0 2.0 0.00 0.00 0.01 84 1003.2
20181121025004 36 165 0.0 2.0 0.00 4.96 0.01 84 1002.9
20181121024004 36 87 0.0 1.0 0.00 2.95 0.01 84 1002.9
20181121023004 36 87 0.0 2.0 0.00 2.56 0.01 84 1002.8
20181121022004 35 135 1.0 2.0 0.00 2.44 0.01 84 1002.7
20181121021003 35 179 0.0 1.0 0.00 2.99 0.01 83 1002.6
20181121020004 35 37 0.0 1.0 0.00 2.75 0.01 83 1002.3
20181121015004 35 30 0.0 1.0 0.00 0.00 0.01 83 1002.4
20181121014004 35 12 0.0 1.0 0.00 3.74 0.01 83 1002.3
20181121011004 36 74 1.0 2.0 0.01 1.41 0.01 83 1002.2
20181121010004 36 168 0.0 1.0 0.01 4.92 0.01 83 1002.1
20181121005005 36 181 0.0 2.0 0.01 5.19 0.01 83 1002.0
20181121004004 36 181 0.0 1.0 0.01 4.64 0.01 83 1001.9
20181121003004 36 181 0.0 1.0 0.01 3.66 0.01 83 1001.9
20181121002004 36 176 0.0 1.0 0.01 5.70 0.01 83 1002.0
20181121001004 36 181 0.0 2.0 0.00 4.63 0.00 83 1001.9
20181121000004 36 178 1.0 2.0 0.00 6.40 0.00 83 1002.1
20181120235003 36 186 0.0 2.0 0.00 6.40 0.00 83 1002.2
20181120234004 36 181 1.0 2.0 0.00 6.40 0.00 83 1002.2
20181120233004 36 1 1.0 2.0 0.00 4.63 0.00 83 1002.4
20181120232004 36 135 0.0 1.0 0.00 4.63 0.00 84 1002.4
20181120231004 36 135 0.0 1.0 0.00 4.16 0.00 84 1002.8
20181120230006 36 8 0.0 2.0 0.00 6.40 0.00 83 1002.7
20181120225004 36 1 1.0 2.0 0.00 3.88 0.30 84 1003.0
20181120224004 36 1 0.0 1.0 0.00 0.00 0.30 84 1002.8
20181120222004 36 0 0.0 0.0 0.01 4.91 0.30 84 1003.0
20181120221004 36 1 0.0 1.0 0.01 4.63 0.30 84 1002.9
20181120220004 36 50 0.0 1.0 0.01 6.40 0.30 84 1002.9
20181120215004 35 76 0.0 1.0 0.01 4.71 0.30 84 1002.9
20181120214004 35 45 0.0 1.0 0.01 0.00 0.30 83 1002.6
20181120213004 35 41 0.0 1.0 0.01 4.71 0.30 83 1002.7
20181120212004 35 157 0.0 1.0 0.00 5.76 0.28 83 1002.7
20181120211004 35 206 0.0 1.0 0.00 1.31 0.28 83 1002.5
20181120210004 35 1 0.0 2.0 0.00 4.85 0.28 83 1002.5
20181120205004 36 90 0.0 1.0 0.00 4.70 0.28 83 1002.5
20181120204004 36 84 0.0 1.0 0.00 4.50 0.28 83 1002.3
20181120203003 36 135 0.0 1.0 0.01 2.93 0.28 83 1002.1
20181120201004 36 181 0.0 1.0 0.01 1.47 0.28 83 1002.1
20181120200004 36 0 0.0 0.0 0.01 1.07 0.28 83 1002.0
20181120195004 36 181 0.0 2.0 5.17 4.50 0.28 83 1002.0
20181120194003 36 1 1.0 2.0 5.25 5.21 0.28 83 1001.9
20181120193004 36 181 0.0 1.0 6.14 4.65 0.27 83 1001.8
20181120192005 36 176 0.0 2.0 6.34 3.94 0.27 83 1001.8
20181120191004 36 181 0.0 4.0 5.94 0.00 0.27 83 1001.7
20181120190005 35 31 0.0 1.0 0.01 5.63 0.27 83 1001.5
20181120184004 35 6 2.0 2.0 0.01 1.50 0.27 83 1001.6
20181120183004 35 1 2.0 3.0 0.00 3.33 0.26 83 1001.5
20181120182005 35 11 0.0 2.0 5.42 5.70 0.26 83 1001.7
20181120181004 35 2 1.0 2.0 0.00 3.10 0.26 83 1001.8
20181120180004 35 39 0.0 1.0 0.00 4.95 0.26 83 1001.7
20181120175004 36 16 0.0 4.0 2.04 1.88 0.26 83 1001.7
20181120174005 36 329 0.0 2.0 5.61 2.97 0.25 83 1001.6
20181120173004 35 24 0.0 2.0 1.24 0.00 0.25 83 1001.6
20181120172005 36 355 0.0 4.0 3.09 4.03 0.25 83 1001.6
20181120170005 35 110 1.0 2.0 0.02 0.00 0.25 82 1001.4
20181120165004 36 19 0.0 1.0 0.01 3.23 0.24 82 1001.2
20181120164004 36 130 0.0 2.0 0.01 0.00 0.24 82 1001.1
20181120163004 36 83 0.0 1.0 0.01 0.00 0.24 82 1000.9
20181120160005 36 181 0.0 1.0 0.01 1.09 0.22 82 1000.4
20181120154004 36 0 0.0 0.0 0.02 4.13 0.22 81 1000.4
20181120152004 36 0 0.0 0.0 0.01 4.23 0.21 81 1000.0
20181120151005 36 0 0.0 0.0 0.02 5.45 0.21 81 1000.0
20181120150004 36 0 0.0 0.0 0.02 0.00 0.21 81 1000.1
20181120145004 36 0 0.0 0.0 0.04 4.07 0.21 81 1000.1
20181120144004 36 0 0.0 0.0 0.02 2.92 0.20 81 1000.1
20181120143004 36 0 0.0 0.0 0.02 3.20 0.20 81 1000.1
20181120142005 37 181 0.0 1.0 0.04 2.61 0.20 81 1000.0
20181120141005 37 181 0.0 2.0 0.02 0.98 0.19 81 1000.2
20181120140005 36 181 2.0 2.0 0.04 1.41 0.19 81 1000.1
20181120135004 36 52 0.0 1.0 0.02 4.28 0.18 81 1000.3
20181120134004 36 45 0.0 1.0 0.04 2.74 0.18 81 1000.2
20181120133004 36 1 0.0 1.0 0.04 5.38 0.18 81 1000.1
20181120132005 36 1 0.0 2.0 0.02 1.67 0.17 81 1000.2
20181120131005 36 15 0.0 2.0 0.04 2.61 0.17 81 1000.3
20181120130005 36 19 0.0 2.0 0.04 6.22 0.15 81 1000.3
20181120125004 36 1 0.0 4.0 0.04 5.31 0.15 81 1000.4
20181120124004 36 34 1.0 2.0 0.04 5.70 0.14 81 1000.5
20181120123004 36 28 1.0 2.0 0.04 3.85 0.14 81 1000.5
20181120122004 36 27 0.0 2.0 0.05 5.26 0.14 80 1000.5
20181120121005 36 45 0.0 2.0 0.04 0.65 0.13 80 1000.6
20181120120005 37 45 0.0 1.0 0.04 2.60 0.12 80 1000.6